Huntsville Madison, AL

1:59 PM CST on November 21, 2017 (GMT -0600)
Huntsville Madison

Weather History for KMDQ - November, 2011

Change the Weather History Date:

Friday, November 11, 2011

  Actual Average (KHSV) Record (KHSV)
Temperature  
Mean Temperature 42 °F -  
Max Temperature 57 °F 60 °F 81 °F (1945)
Min Temperature 26 °F 39 °F 22 °F (1946)
Degree Days  
Heating Degree Days 24    
Moisture  
Dew Point 28 °F    
Average Humidity 64    
Maximum Humidity 100    
Minimum Humidity 33    
Precipitation  
Precipitation 0.00 in - - ()
Sea Level Pressure  
Sea Level Pressure 30.19 in    
Wind  
Wind Speed 2 mph (SSW)    
Max Wind Speed 10 mph    
Max Gust Speed -    
Visibility 10 miles    
Events      
Averages and records for this station are not official NWS values.
T = Trace of Precipitation, MM = Missing Value Source: NWS Daily Summary

Daily Weather History Graph

Daily Weather History Graph

Search for Another Location

Airport or City:

Trip Planner

Search our weather history database for the weather conditions in past years. The results will help you decide how hot, cold, wet, or windy it might be!

Date:

Astronomy

Nov. 11, 2011 Rise Set
Actual Time 6:16 AM CST 4:43 PM CST
Civil Twilight 5:49 AM CST 5:10 PM CST
Nautical Twilight 5:19 AM CST 5:40 PM CST
Astronomical Twilight 4:49 AM CST 6:10 PM CST
Moon 5:16 PM CST (11/11) 7:00 AM CST (11/11)
Length of Visible Light 11h 20m
Length of Day
10h 27m
Full, 99% of the Moon is Illuminated
Nov 11
Full
Nov 18
Last Quarter
Nov 25
New
Dec 2
First Quarter
Dec 10
Full

Hourly Weather History & Observations

Time (CST) Temp. Windchill Dew Point Humidity Pressure Visibility Wind Dir Wind Speed Gust Speed Precip Events Conditions
12:15 AM 30.2 °F - 28.4 °F 93% 30.18 in 10.0 mi Calm Calm - N/A   Clear
12:35 AM 30.2 °F - 28.4 °F 93% 30.18 in 10.0 mi Calm Calm - N/A   Clear
12:55 AM 30.2 °F - 28.4 °F 93% 30.18 in 10.0 mi Calm Calm - N/A   Clear
1:15 AM 30.2 °F - 28.4 °F 93% 30.18 in 10.0 mi Calm Calm - N/A   Clear
1:35 AM 28.4 °F - 28.4 °F 100% 30.18 in 10.0 mi Calm Calm - N/A   Clear
1:55 AM 28.4 °F - 28.4 °F 100% 30.18 in 10.0 mi Calm Calm - N/A   Clear
2:15 AM 28.4 °F - 28.4 °F 100% 30.19 in 10.0 mi Calm Calm - N/A   Clear
2:55 AM 28.4 °F - 28.4 °F 100% 30.19 in 10.0 mi Calm Calm - N/A   Clear
3:15 AM 28.4 °F - 28.4 °F 100% 30.19 in 10.0 mi Calm Calm - N/A   Clear
3:35 AM 28.4 °F - 28.4 °F 100% 30.19 in 10.0 mi Calm Calm - N/A   Clear
3:55 AM 26.6 °F - 26.6 °F 100% 30.19 in 10.0 mi Calm Calm - N/A   Clear
4:35 AM 26.6 °F - 26.6 °F 100% 30.20 in 10.0 mi Calm Calm - N/A   Clear
4:55 AM 26.6 °F - 26.6 °F 100% 30.20 in 10.0 mi Calm Calm - N/A   Clear
5:15 AM 26.6 °F - 26.6 °F 100% 30.20 in 10.0 mi Calm Calm - N/A   Clear
5:35 AM 26.6 °F - 26.6 °F 100% 30.21 in 10.0 mi Calm Calm - N/A   Clear
6:15 AM 26.6 °F - 26.6 °F 100% 30.22 in 10.0 mi Calm Calm - N/A   Clear
6:35 AM 26.6 °F - 26.6 °F 100% 30.23 in 10.0 mi Calm Calm - N/A   Clear
6:55 AM 28.4 °F - 28.4 °F 100% 30.24 in 10.0 mi Calm Calm - N/A   Clear
7:15 AM 28.4 °F - 28.4 °F 100% 30.24 in 10.0 mi Calm Calm - N/A   Clear
7:35 AM 30.2 °F - 30.2 °F 100% 30.24 in 10.0 mi Calm Calm - N/A   Clear
7:55 AM 32.0 °F - 32.0 °F 100% 30.25 in 10.0 mi Calm Calm - N/A   Clear
8:15 AM 35.6 °F - 30.2 °F 81% 30.25 in 10.0 mi Calm Calm - N/A   Clear
8:35 AM 37.4 °F 34.9 °F 30.2 °F 75% 30.25 in 10.0 mi South 3.5 mph - N/A   Clear
8:55 AM 41.0 °F 39.0 °F 30.2 °F 65% 30.25 in 10.0 mi SSE 3.5 mph - N/A   Clear
9:15 AM 42.8 °F - 26.6 °F 53% 30.25 in 10.0 mi Calm Calm - N/A   Clear
9:35 AM 42.8 °F - 26.6 °F 53% 30.25 in 10.0 mi Calm Calm - N/A   Clear
9:55 AM 44.6 °F - 26.6 °F 49% 30.24 in 10.0 mi Calm Calm - N/A   Clear
10:15 AM 46.4 °F - 26.6 °F 46% 30.24 in 10.0 mi Calm Calm - N/A   Clear
10:35 AM 48.2 °F - 23.0 °F 37% 30.23 in 10.0 mi SW 3.5 mph - N/A   Clear
10:55 AM 50.0 °F - 23.0 °F 35% 30.22 in 10.0 mi WSW 3.5 mph - N/A   Clear
11:15 AM 50.0 °F - 23.0 °F 35% 30.21 in 10.0 mi South 3.5 mph - N/A   Clear
11:35 AM 51.8 °F - 23.0 °F 33% 30.19 in 10.0 mi Calm Calm - N/A   Clear
11:55 AM 51.8 °F - 24.8 °F 35% 30.19 in 10.0 mi SW 5.8 mph - N/A   Clear
12:35 PM 53.6 °F - 26.6 °F 35% 30.18 in 10.0 mi SW 8.1 mph - N/A   Clear
1:15 PM 55.4 °F - 28.4 °F 36% 30.16 in 10.0 mi SW 8.1 mph - N/A   Clear
1:35 PM 55.4 °F - 28.4 °F 36% 30.16 in 10.0 mi WSW 8.1 mph - N/A   Clear
1:55 PM 55.4 °F - 26.6 °F 33% 30.16 in 10.0 mi West 6.9 mph - N/A   Clear
2:15 PM 57.2 °F - 28.4 °F 33% 30.16 in 10.0 mi SW 9.2 mph - N/A   Clear
2:35 PM 55.4 °F - 28.4 °F 36% 30.15 in 10.0 mi SW 9.2 mph - N/A   Clear
2:55 PM 57.2 °F - 28.4 °F 33% 30.15 in 10.0 mi SSW 5.8 mph - N/A   Clear
3:15 PM 57.2 °F - 28.4 °F 33% 30.15 in 10.0 mi SSW 8.1 mph - N/A   Clear
3:35 PM 57.2 °F - 28.4 °F 33% 30.14 in 10.0 mi SSW 10.4 mph - N/A   Clear
3:55 PM 57.2 °F - 28.4 °F 33% 30.13 in 10.0 mi South 9.2 mph - N/A   Clear
4:15 PM 55.4 °F - 28.4 °F 36% 30.13 in 10.0 mi South 6.9 mph - N/A   Clear
4:35 PM 55.4 °F - 28.4 °F 36% 30.13 in 10.0 mi South 3.5 mph - N/A   Clear
4:55 PM 53.6 °F - 30.2 °F 41% 30.13 in 10.0 mi Calm Calm - N/A   Clear
5:15 PM 51.8 °F - 30.2 °F 44% 30.14 in 10.0 mi Calm Calm - N/A   Clear
5:35 PM 50.0 °F - 30.2 °F 47% 30.14 in 10.0 mi SSE 4.6 mph - N/A   Clear
5:55 PM 50.0 °F - 30.2 °F 47% 30.14 in 10.0 mi SSE 3.5 mph - N/A   Clear
6:15 PM 48.2 °F - 30.2 °F 50% 30.14 in 10.0 mi SSE 3.5 mph - N/A   Clear
6:35 PM 48.2 °F - 30.2 °F 50% 30.15 in 10.0 mi South 5.8 mph - N/A   Clear
6:55 PM 48.2 °F - 30.2 °F 50% 30.15 in 10.0 mi South 5.8 mph - N/A   Clear
7:15 PM 48.2 °F - 30.2 °F 50% 30.16 in 10.0 mi South 5.8 mph - N/A   Clear
7:35 PM 48.2 °F - 30.2 °F 50% 30.16 in 10.0 mi South 6.9 mph - N/A   Clear
7:55 PM 50.0 °F - 30.2 °F 47% 30.16 in 10.0 mi South 6.9 mph - N/A   Clear
8:15 PM 48.2 °F - 30.2 °F 50% 30.17 in 10.0 mi South 6.9 mph - N/A   Clear
8:35 PM 48.2 °F - 30.2 °F 50% 30.17 in 10.0 mi South 5.8 mph - N/A   Clear
8:55 PM 46.4 °F 44.3 °F 30.2 °F 53% 30.17 in 10.0 mi South 4.6 mph - N/A   Clear
9:15 PM 42.8 °F 39.3 °F 32.0 °F 66% 30.17 in 10.0 mi South 5.8 mph - N/A   Clear
9:35 PM 46.4 °F 42.4 °F 30.2 °F 53% 30.16 in 10.0 mi South 8.1 mph - N/A   Clear
9:55 PM 46.4 °F 44.3 °F 30.2 °F 53% 30.16 in 10.0 mi South 4.6 mph - N/A   Clear
10:15 PM 48.2 °F - 30.2 °F 50% 30.16 in 10.0 mi South 6.9 mph - N/A   Clear
10:35 PM 46.4 °F 42.9 °F 30.2 °F 53% 30.16 in 10.0 mi South 6.9 mph - N/A   Clear
10:55 PM 46.4 °F 42.4 °F 30.2 °F 53% 30.16 in 10.0 mi South 8.1 mph - N/A   Clear
11:15 PM 46.4 °F 42.4 °F 30.2 °F 53% 30.16 in 10.0 mi South 8.1 mph - N/A   Clear
11:35 PM 46.4 °F 43.5 °F 30.2 °F 53% 30.17 in 10.0 mi South 5.8 mph - N/A   Clear
11:55 PM 46.4 °F 43.5 °F 32.0 °F 57% 30.17 in 10.0 mi SSE 5.8 mph - N/A   Clear